Weather in Kaydakovo

Russia / Smolensk Oblast     55°06′08″N   34°18′14″E
temp.,
°C
wind,
m/s
gust,
m/s
humid.,
%
clouds,
%
prec.,
mm/h
press.,
hPa
HPBL,
m
14 may, fri
fri1400:00+7sse269659 0.0 1015112
03:00+6se24965 0.0 101580
06:00+7ese3994100 0.0 1015233
09:00+13se487770 0.0 1014451
12:00+17se475648 0.0 10131245
15:00+20se575287 0.1 10111745
18:00+17ese4982100 1.0 1009747
21:00+13ese31098100 3.4 1009430
15 may, sat
sat1500:00+13ese389984 0.8 1008267
03:00+11se399872 0.8 1007204
06:00+11s299932 0.0 1008261
09:00+15s478332 0.3 1008475
12:00+18ssw586524 1.1 10081521
15:00+19ssw576447 2.6 10081570
18:00+16ssw488451 2.7 1008702
21:00+12s399720 3.4 1009260
16 may, sun
sun1600:00+11ssw399820 0.0 1009310
03:00+9ssw289819 0.0 1010203
06:00+10ssw289826 0.0 1011240
09:00+14sw468447 0.0 1012631
12:00+17sw467286 0.1 10121085
15:00+16sw368486 0.6 1013557
18:00+18sw357538 0.4 1012962
21:00+13s119199 0.4 101311
17 may, mon
mon1700:00+12se229386 0.0 101311
03:00+11ese2395100 0.0 101459
06:00+11ese279414 0.0 1013159
09:00+17ese3772100 0.0 1012417
12:00+22e5861100 0.0 10101099
15:00+25ese610575 0.0 10071575
18:00+23se613645 0.0 10051349
21:00+19se5147866 0.0 1005769
18 may, tue
tue1800:00+16se41193100 0.4 1005342
03:00+14se269882 2.3 1004152
06:00+15s1299100 1.3 1005156
09:00+16sw2297100 3.0 1005368
12:00+17wsw1284100 0.5 1006552
15:00+19w2273100 0.7 1005875
18:00+18w237599 0.1 1005561
21:00+14w239581 0.3 100563